Погода в Космурыне

Хотите узнать прогноз погоды в Космурыне? Тогда Вам сюда: Погода в Космурыне

Поиск расширенной информации на нашем сайте:

Полезная информация:

Новости сайта



02.01.2020
Опубликован Долгосрочный прогноз погоды по городам России и ближнего зарубежья на январь 2020 года.
Карты: Прогноз на январь и февраль 2020 года, Сравнение прогнозируемой аномалии приземной температуры воздуха на январь 2020 года по разным моделям.




Погода в Космурыне - сегодня

Время (UTC), дата Ветер
(°,м/с) 
Видим.   Явления Облачность Т
(°С)
Тd
(°С)
f(%) Тe
(°С)
Pmin
(гПа)
dP
(гПа)
Po
(мм)
O2
(г/м3)
Тmin Tmax R s Состояние
почвы
15 21.10.21 260 (З) 20000 м    9/6 1000 м средняя 
[Sc|Ac und]
+2.6 -1.6 74 +1  1014.2  2.2  750  300    +3.8  0.0     
18 21.10.21 220 (ЮЗ) 20000 м    9/0 средняя 
[Ac und]
+1.5 -2.6 74 1014.9  0.7  751  301    +3.8  0.0     
21 21.10.21 200 (Ю) 20000 м    9/8 1000 м средняя 
[Sc|Ac und]
+1 -2.9 75 1014.1  -0.8  750  302           
03 22.10.21 180 (Ю) 4000 м  слаб. ливневой снег  10/10 600 м кучево-дожд. 
[Cb cap]
+0.3 -0.5 94 -3  1010  -1.6  747  301      0.9  <0.5  равномерный
мокрый или
старый снег
100% 
06 22.10.21 210 (ЮЗ) 20000 м  {ливн. осадки}  10/10 1000 м 
[Sc]
+2.5 +1.5 93 1009.9  0.1  747  298  +0.3    0.9     
09 22.10.21 200 (Ю) 20000 м    10/10 1000 м 
[Sc]
+5.2 +3 86 +4  1010.3  0.5  748  295           
15 22.10.21 200 (Ю) 20000 м  в посл. час ливневой дождь  10/10 600 м кучево-дожд. 
[Cb cap]
+7.1 +4.8 85 +6  1012.8  1.1  749  294    +7.5  0.3     
18 22.10.21 180 (Ю) 20000 м  {ливн. осадки}  9/9 1000 м 
[Sc]
+6.3 +4.2 86 +4  1012.3  -0.6  749  294    +7.5  0.3     
21 22.10.21 200 (Ю) 20000 м    9/9 1000 м 
[Sc]
+7.1 +3.2 76 +5  1012.2  749  294           
00 23.10.21 190 (Ю) 20000 м    3/3 1000 м 
[Sc]
+6.4 +2.2 74 +5  1012  -0.3  749  294           
03 23.10.21 200 (Ю) 20000 м    5/3 1000 м средняя 
[Sc|Ac lent]
+6.3 +2.1 74 +5  1013.7  1.7  750  295           
06 23.10.21 220 (ЮЗ) 20000 м    9/0 средняя, верхняя 
[Ac und|Cs]
+9.3 +4.3 71 +8  1014.5  751  292  +6         
09 23.10.21 200 (Ю) 20000 м    9/0 верхняя 
[Cs]
+12.6 +5.8 63 +12  1014.8  0.5  751  288           
12 23.10.21 230 (ЮЗ) 20000 м    9/0 средняя, верхняя 
[Ac lent|Cs]
+12.7 +6.4 65 +12  1017.2  2.3  753  289           
15 23.10.21 210 (ЮЗ) 20000 м    9/3 1000 м средняя 
[Sc|Ac und]
+9.6 +6.1 79 +10  1018.5  1.2  754  292    +14.1       
18 23.10.21 240 (ЮЗ) 20000 м    9/0 средняя 
[Ac und]
+9.3 +6.2 81 +8  1019.2  0.6  754  293    +14.1       
21 23.10.21 190 (Ю) 20000 м    9/3 1000 м средняя 
[Sc|Ac und]
+9.3 +7 86 +9  1019.2  754  293           
06 24.10.21 160 (Ю) 20000 м    8/0 средняя, верхняя 
[Ac und|Cs]
+10.3 +7.4 82 +9  1019.5  -0.6  755  292  +6         
09 24.10.21 160 (Ю) 9{15}  20000 м    6/3 1000 м средняя, верхняя 
[Cu med, cong|Ac und|Ci fib]
+16.1 +6.2 52 +15  1016  -3.3  752  285           
12 24.10.21 170 (Ю) 5{15}  20000 м    6/0 верхняя 
[Cs]
+13.8 -1.4 35 +13  1016  752  289           
15 24.10.21 190 (Ю) 20000 м    9/0 верхняя 
[Cs]
+10.4 -2.7 40 +9  1016.5  0.3  752  292    +16.9       
18 24.10.21 170 (Ю) 20000 м    9/0 верхняя 
[Cs]
+7.3 -2.7 49 +7  1017  0.3  753  296    +16.9       
21 24.10.21 180 (Ю) 20000 м    10/0 верхняя 
[Cs]
+5.8 -1.2 61 +4  1015.5  -1.5  751  297           
06 25.10.21 130 (ЮВ) 20000 м    10/10 1000 м 
[Sc]
+5.7 -1.3 61 +5  1015.5  -0.1  751  297  +2.1         
09 25.10.21 150 (ЮВ) 20000 м    10/6 1000 м средняя 
[Sc|Ac As]
+8.6 -0.7 52 +9  1013.6  -1.7  750  293           
Время (UTC), дата Ветер
(°,м/с) 
Видим.   Явления Облачность Т
(°С)
Тd
(°С)
f(%) Тe
(°С)
Pmin
(гПа)
dP
(гПа)
Po
(мм)
O2
(г/м3)
Тmin Tmax R s Состояние
почвы

Для получения пояснительной информации подведите курсор к названию столбца.

ПОГОДА в Космурыне - архив

Всё, что Вы хотите узнать о погоде в Космурыне - удобно и подробно!

Выберите нужную дату (начиная с 1 января 2019* года) и нажмите кнопку "Найти".
Будут отображены архивные сводки погоды по пункту Космурын, начиная с указанной даты.


Отображать данные в формате CSV (для использования в таблицах Excel)


Внимание! Наш архив погоды предназначен исключительно для личного некоммерческого использования в познавательных целях. Если Вам необходимы официальные справки о состоянии погоды (для производственных, юридических, коммерческих и т.п. целей), обращайтесь в органы Росгидромета.

*Примечание: данная дата относится к архиву по метеостанциям СССР (Россия, СНГ, Балтия).
Архив по метеостанциям Зарубежной Европы и Азии (кроме Китая) хранится 10 дней, по другим регионам земного шара (Китай, Африка, Америка, Австралия, Океания) - 1 день.

Космурын - район местоположения метеостанции


Название, широта, долгота, высота метеостанции:
Космурын 52.5°ш. 64.7°д. 110 м над ур. моря [Казахстан]

Дополнительная информация

В oтличие oт бoльшинства пoгoдных сайтoв мы публикуем пoдрoбную метеoинфoрмацию в детальнoм прoфессиoнальнoм фoрмате.

Характеристики температуры и влажнoсти вoздуха измеряются на высoте 2 м в тени вдали oт зданий и деревьев.
Скoрoсть ветра измеряется на высoте 10 м (на урoвне рoста челoвека скoрoсть ветра ниже в 1.5-2 раза). Если метеoстанция нахoдится в гoрoде или в лесу, тo скoрoсть ветра занижена на 2-4 м/с пo сравнению с oткрытым местoм. Скoрoсть ветра над акватoриями крупных рек и oзёр, а также на вершинах хoлмoв на 2-5 м/с выше, чем в oбычных услoвиях.
Атмoсфернoе давление в разных тoчках местнoсти мoжет значительнo oтличаться oт давления на метеoстанции, в зависимoсти oт услoвий рельефа (при пoдъёме на 10 м давление пoнижается примернo на 1 мм рт.ст.).